When you browse on this site, cookies collect data to enhance your experience and personalize the content and advertising you see.
Visit our Privacy Policy to learn more. By continuing to use the site, you agree to this use of cookies and data.
  • în România
  • Lista ţărilor
  • Pe 7 zile
  • Temperatura apei
  • Meteo pe hartă
  • Widget-uri
  • user-avatar
    Intrare

    Meteo pe oră la Erd

    Astăzi, 25 Februarie, Marţi

    Timp Temperatura Precipitaţii Vânt Presiune Umiditate
    00:00 +5°C° 0 mm 3 m/s 751 mmHg 60%
    01:00 +5°C° 0 mm 4 m/s 751 mmHg 59%
    02:00 +5°C° 0 mm 4 m/s 750 mmHg 61%
    03:00 +4°C° 0 mm 4 m/s 749 mmHg 64%
    04:00 +4°C° 0 mm 4 m/s 749 mmHg 66%
    05:00 +4°C° 0 mm 4 m/s 748 mmHg 68%
    06:00 +3°C° 0 mm 4 m/s 748 mmHg 70%
    07:00 +3°C° 0 mm 4 m/s 748 mmHg 73%
    08:00 +5°C° 0 mm 4 m/s 748 mmHg 69%
    09:00 +7°C° 0 mm 4 m/s 747 mmHg 66%
    10:00 +10°C° 0 mm 4 m/s 747 mmHg 62%
    11:00 +10°C° 0 mm 5 m/s 746 mmHg 60%
    12:00 +13°C° 0 mm 5 m/s 746 mmHg 57%
    13:00 +14°C° 0 mm 6 m/s 745 mmHg 55%
    14:00 +14°C° 0 mm 6 m/s 744 mmHg 58%
    15:00 +13°C° 0 mm 6 m/s 744 mmHg 62%
    16:00 +13°C° 0 mm 5 m/s 743 mmHg 65%
    17:00 +12°C° 0 mm 5 m/s 743 mmHg 69%
    18:00 +11°C° 0 mm 4 m/s 743 mmHg 74%
    19:00 +10°C° 0 mm 4 m/s 742 mmHg 78%
    20:00 +10°C° 0 mm 3 m/s 742 mmHg 79%
    21:00 +9°C° 0 mm 3 m/s 741 mmHg 80%
    22:00 +9°C° 0 mm 3 m/s 741 mmHg 81%
    23:00 +8°C° 0.1 mm 4 m/s 741 mmHg 81%

    Mâine, 26 Februarie, Miercuri

    Timp Temperatura Precipitaţii Vânt Presiune Umiditate
    00:00 +8°C° 0.1 mm 4 m/s 740 mmHg 81%
    01:00 +8°C° 0.1 mm 4 m/s 740 mmHg 81%
    02:00 +8°C° 1.2 mm 4 m/s 739 mmHg 85%
    03:00 +8°C° 1.2 mm 4 m/s 738 mmHg 88%
    04:00 +7°C° 1.2 mm 4 m/s 738 mmHg 92%
    05:00 +7°C° 2 mm 4 m/s 738 mmHg 90%
    06:00 +7°C° 2 mm 3 m/s 738 mmHg 89%
    07:00 +7°C° 2 mm 3 m/s 738 mmHg 87%
    08:00 +7°C° 0 mm 4 m/s 738 mmHg 79%
    09:00 +7°C° 0 mm 4 m/s 738 mmHg 71%
    10:00 +8°C° 0 mm 5 m/s 738 mmHg 63%
    11:00 +8°C° 0 mm 5 m/s 738 mmHg 61%
    12:00 +8°C° 0 mm 6 m/s 738 mmHg 59%
    13:00 +9°C° 0 mm 6 m/s 738 mmHg 57%
    14:00 +8°C° 0 mm 6 m/s 737 mmHg 57%
    15:00 +6°C° 0 mm 7 m/s 737 mmHg 57%
    16:00 +6°C° 0 mm 7 m/s 737 mmHg 57%
    17:00 +5°C° 0 mm 6 m/s 737 mmHg 57%
    18:00 +6°C° 0 mm 5 m/s 738 mmHg 56%
    19:00 +5°C° 0 mm 5 m/s 738 mmHg 56%
    20:00 +5°C° 0 mm 5 m/s 739 mmHg 58%
    21:00 +3°C° 0 mm 5 m/s 739 mmHg 59%
    22:00 +3°C° 0 mm 5 m/s 739 mmHg 61%
    23:00 +2°C° 0 mm 6 m/s 740 mmHg 62%

    Poimâine, 27 Februarie, Joi

    Timp Temperatura Precipitaţii Vânt Presiune Umiditate
    00:00 +2°C° 0 mm 7 m/s 740 mmHg 62%
    01:00 0°C° 0 mm 7 m/s 741 mmHg 63%
    02:00 0°C° 0 mm 7 m/s 741 mmHg 65%
    03:00 +1°C° 0 mm 6 m/s 741 mmHg 68%
    04:00 +1°C° 0 mm 6 m/s 741 mmHg 70%
    05:00 +1°C° 0 mm 6 m/s 742 mmHg 70%
    06:00 -1°C° 0 mm 6 m/s 742 mmHg 70%
    07:00 -1°C° 0 mm 6 m/s 743 mmHg 70%
    08:00 +1°C° 0 mm 6 m/s 744 mmHg 66%
    09:00 +2°C° 0 mm 7 m/s 744 mmHg 61%
    10:00 +2°C° 0 mm 8 m/s 745 mmHg 56%
    11:00 +4°C° 0 mm 8 m/s 745 mmHg 53%
    12:00 +5°C° 0 mm 7 m/s 745 mmHg 50%
    13:00 +5°C° 0 mm 7 m/s 745 mmHg 47%
    14:00 +5°C° 0 mm 6 m/s 744 mmHg 46%
    15:00 +6°C° 0 mm 5 m/s 744 mmHg 46%
    16:00 +6°C° 0 mm 5 m/s 744 mmHg 45%
    17:00 +5°C° 0 mm 4 m/s 744 mmHg 50%
    18:00 +5°C° 0 mm 3 m/s 743 mmHg 55%
    19:00 +4°C° 0 mm 3 m/s 743 mmHg 59%
    20:00 +4°C° 0 mm 4 m/s 742 mmHg 57%
    21:00 +3°C° 0 mm 6 m/s 741 mmHg 55%
    22:00 +3°C° 0 mm 7 m/s 741 mmHg 52%
    23:00 +2°C° 0 mm 8 m/s 740 mmHg 55%

    28 Februarie, Vineri

    Timp Temperatura Precipitaţii Vânt Presiune Umiditate
    00:00 +2°C° 0 mm 8 m/s 739 mmHg 57%
    01:00 +3°C° 0 mm 9 m/s 739 mmHg 59%
    02:00 +3°C° 0.1 mm 9 m/s 738 mmHg 62%
    03:00 +4°C° 0.1 mm 8 m/s 738 mmHg 65%
    04:00 +4°C° 0.1 mm 8 m/s 738 mmHg 68%
    05:00 +2°C° 0.1 mm 9 m/s 739 mmHg 66%
    06:00 +2°C° 0.1 mm 10 m/s 740 mmHg 65%
    07:00 +1°C° 0.1 mm 11 m/s 740 mmHg 64%
    08:00 +1°C° 0 mm 11 m/s 742 mmHg 65%
    09:00 +2°C° 0 mm 11 m/s 743 mmHg 66%
    10:00 +2°C° 0 mm 11 m/s 744 mmHg 66%
    11:00 +3°C° 0 mm 11 m/s 745 mmHg 61%
    12:00 +3°C° 0 mm 11 m/s 746 mmHg 55%
    13:00 +4°C° 0 mm 11 m/s 746 mmHg 49%
    14:00 +5°C° 0 mm 10 m/s 747 mmHg 47%
    15:00 +5°C° 0 mm 10 m/s 748 mmHg 46%
    16:00 +5°C° 0 mm 9 m/s 748 mmHg 44%
    17:00 +4°C° 0 mm 7 m/s 749 mmHg 48%
    18:00 +3°C° 0 mm 6 m/s 750 mmHg 53%
    19:00 +3°C° 0 mm 4 m/s 751 mmHg 57%
    20:00 +3°C° 0 mm 4 m/s 751 mmHg 60%
    21:00 +1°C° 0 mm 4 m/s 752 mmHg 62%
    22:00 +1°C° 0 mm 4 m/s 752 mmHg 65%
    23:00 +2°C° 0 mm 3 m/s 752 mmHg 67%

    29 Februarie, Sâmbătă

    Timp Temperatura Precipitaţii Vânt Presiune Umiditate
    00:00 +1°C° 0 mm 3 m/s 752 mmHg 69%
    01:00 +2°C° 0 mm 2 m/s 752 mmHg 70%
    02:00 +2°C° 0 mm 2 m/s 751 mmHg 71%
    03:00 +1°C° 0 mm 2 m/s 751 mmHg 72%
    04:00 +1°C° 0 mm 2 m/s 751 mmHg 73%
    05:00 +1°C° 0 mm 2 m/s 750 mmHg 72%
    06:00 +1°C° 0 mm 2 m/s 750 mmHg 71%
    07:00 +1°C° 0 mm 2 m/s 750 mmHg 69%
    08:00 +2°C° 0 mm 3 m/s 750 mmHg 61%
    09:00 +4°C° 0 mm 4 m/s 749 mmHg 52%
    10:00 +6°C° 0 mm 5 m/s 749 mmHg 43%
    11:00 +7°C° 0 mm 6 m/s 749 mmHg 43%
    12:00 +7°C° 0 mm 6 m/s 748 mmHg 43%
    13:00 +8°C° 0 mm 6 m/s 747 mmHg 43%
    14:00 +8°C° 0 mm 6 m/s 747 mmHg 46%
    15:00 +8°C° 0 mm 6 m/s 746 mmHg 49%
    16:00 +8°C° 0 mm 5 m/s 746 mmHg 52%
    17:00 +8°C° 0 mm 5 m/s 745 mmHg 57%
    18:00 +7°C° 0 mm 5 m/s 745 mmHg 62%
    19:00 +7°C° 0 mm 5 m/s 745 mmHg 67%
    20:00 +7°C° 0 mm 5 m/s 744 mmHg 67%
    21:00 +7°C° 0 mm 5 m/s 744 mmHg 66%
    22:00 +6°C° 0 mm 5 m/s 744 mmHg 66%
    23:00 +6°C° 0 mm 5 m/s 744 mmHg 68%

    1 Martie, Duminică

    Timp Temperatura Precipitaţii Vânt Presiune Umiditate
    00:00 +6°C° 0 mm 5 m/s 744 mmHg 70%
    01:00 +6°C° 0 mm 4 m/s 744 mmHg 71%
    02:00 +5°C° 0.2 mm 6 m/s 744 mmHg 75%
    03:00 +5°C° 0.2 mm 7 m/s 744 mmHg 80%
    04:00 +4°C° 0.2 mm 8 m/s 744 mmHg 84%
    05:00 +4°C° 0.1 mm 7 m/s 744 mmHg 83%
    06:00 +5°C° 0.1 mm 5 m/s 745 mmHg 82%
    07:00 +5°C° 0.1 mm 3 m/s 745 mmHg 81%
    08:00 +5°C° 0 mm 4 m/s 745 mmHg 73%
    09:00 +6°C° 0 mm 4 m/s 746 mmHg 65%
    10:00 +7°C° 0 mm 4 m/s 746 mmHg 57%
    11:00 +7°C° 0 mm 4 m/s 746 mmHg 57%
    12:00 +8°C° 0 mm 3 m/s 746 mmHg 56%
    13:00 +8°C° 0 mm 3 m/s 746 mmHg 56%
    14:00 +8°C° 0 mm 3 m/s 746 mmHg 55%
    15:00 +9°C° 0 mm 3 m/s 746 mmHg 54%
    16:00 +9°C° 0 mm 3 m/s 746 mmHg 53%
    17:00 +8°C° 0 mm 2 m/s 746 mmHg 58%
    18:00 +7°C° 0 mm 2 m/s 747 mmHg 62%
    19:00 +7°C° 0 mm 2 m/s 747 mmHg 66%
    20:00 +6°C° 0 mm 2 m/s 747 mmHg 70%
    21:00 +5°C° 0 mm 3 m/s 748 mmHg 74%
    22:00 +4°C° 0 mm 3 m/s 748 mmHg 78%
    23:00 +5°C° 0 mm 2 m/s 748 mmHg 82%
    Arată mai mult